Weather in Tychy

Poland     50°07′22″N   18°59′07″E
temp.,
°C
wind,
m/s
gust,
m/s
humid.,
%
clouds,
%
prec.,
mm/h
press.,
hPa
HPBL,
m
24 september, fri
fri2423:00+15wsw81860100 0.0 1010846
02:00+15wsw91665100 0.1 1008994
05:00+14w61380100 0.8 1008890
08:00+12wnw71373100 1.1 10111021
11:00+14wnw71264100 0.0 10131429
14:00+15wnw7115368 0.1 10131623
17:00+15wnw51150100 0.0 1013953
20:00+13wsw386526 0.0 1015217
25 september, sat
sat2523:00+11wsw378046 0.0 1017153
02:00+13sw3770100 0.0 1017180
05:00+13sw4970100 0.0 1017249
08:00+14sw41077100 0.0 1017340
11:00+19wsw69660 0.0 1018844
14:00+21wsw686046 0.0 10171396
17:00+20wsw3766100 0.0 1017283
20:00+18wsw237334 0.0 101949
26 september, sun
sun2623:00+15sw118513 0.0 102011
02:00+14se11881 0.0 102011
05:00+13ese11905 0.0 102013
08:00+14e238436 0.0 102191
11:00+19e2266100 0.0 1021417
14:00+22e225899 0.0 1020670
17:00+21e35689 0.0 1018309
20:00+16e36855 0.0 1019118
27 september, mon
mon2723:00+15e23896 0.0 101981
02:00+14e249182 0.0 101875
05:00+13e239028 0.0 101867
08:00+14e358737 0.0 1018136
11:00+19e33689 0.0 1018419
14:00+22e336057 0.0 1017840
17:00+20e3670100 0.0 1017442
20:00+16ene498196 0.0 1018316
28 september, tue
tue2823:00+14e3687100 0.0 1019210
02:00+13ene2489100 0.0 1020137
05:00+12e2384100 0.0 102174
08:00+12e2479100 0.0 1022177
11:00+15ene3466100 0.0 1022496
14:00+18e345858 0.0 1022928
17:00+17e466272 0.0 1021698
20:00+13e377494 0.0 1022236